Location: Unspecified
(40.7945°N, 111.1337°W)
Time: 06:14:34
(UTC-06:00)

Okean 3 - Pass Details

Date: 25 March 2019
Orbit: 576 x 602 km, 82.5° (Epoch: 24 April)

Event Time Altitude Azimuth Distance (km) Brightness Sun altitude
Exits shadow 05:54:37 - 188° (S) 2,248 6.2 -16.7°
Reaches altitude 10° 05:55:24 10° 189° (S) 1,932 5.8 -16.5°
Maximum altitude 05:59:41 84° 276° (W) 609 3.4 -15.8°
Drops below altitude 10° 06:04:01 10° 6° (N) 1,950 6.4 -15.0°
Sets 06:06:14 0° 8° (N) 2,857 7.3 -14.6°
